Time,TemperatureF,DewpointF,PressureIn,WindDirection,WindDirectionDegrees,WindSpeedMPH,WindSpeedGustMPH,Humidity,HourlyPrecipIn,Conditions,Clouds,dailyrainin,SolarRadiationWatts/m^2,SoftwareType,DateUTC
2013-02-16 00:00:00,27.0,21.4,30.14,NW,321,1.0,3.0,79,0.00,,,0.00,0,WeatherCatV1.12B45,2013-02-16 05:00:00,
2013-02-16 00:05:00,26.9,21.3,30.15,NW,321,0.0,3.0,79,0.00,,,0.00,0,WeatherCatV1.12B45,2013-02-16 05:05:00,
2013-02-16 00:10:00,26.9,21.3,30.15,NW,321,0.0,2.0,79,0.00,,,0.00,0,WeatherCatV1.12B45,2013-02-16 05:10:00,
2013-02-16 00:15:00,26.8,21.2,30.14,NW,321,1.0,2.0,79,0.00,,,0.00,0,WeatherCatV1.12B45,2013-02-16 05:15:00,
2013-02-16 00:20:00,26.7,21.1,30.14,NW,321,2.0,3.0,79,0.00,,,0.00,0,WeatherCatV1.12B45,2013-02-16 05:20:00,
2013-02-16 00:25:00,26.6,21.0,30.14,NW,321,1.0,2.0,79,0.00,,,0.00,0,WeatherCatV1.12B45,2013-02-16 05:25:00,
2013-02-16 00:30:00,26.5,20.9,30.14,NW,321,1.0,2.0,79,0.00,,,0.00,0,WeatherCatV1.12B45,2013-02-16 05:30:00,
2013-02-16 00:35:00,26.4,20.8,30.14,NW,321,2.0,3.0,79,0.00,,,0.00,0,WeatherCatV1.12B45,2013-02-16 05:35:00,
2013-02-16 00:40:00,26.3,20.7,30.15,NW,321,1.0,3.0,79,0.00,,,0.00,0,WeatherCatV1.12B45,2013-02-16 05:40:00,
2013-02-16 00:45:00,26.3,20.7,30.14,NW,321,2.0,4.0,79,0.00,,,0.00,0,WeatherCatV1.12B45,2013-02-16 05:45:00,
2013-02-16 00:50:00,26.2,20.9,30.14,NW,321,1.0,2.0,80,0.00,,,0.00,0,WeatherCatV1.12B45,2013-02-16 05:50:00,
2013-02-16 00:55:00,26.1,20.5,30.14,NW,325,1.0,2.0,79,0.00,,,0.00,0,WeatherCatV1.12B45,2013-02-16 05:55:00,
2013-02-16 01:00:00,26.1,20.5,30.14,NW,313,2.0,2.0,79,0.00,,,0.00,0,WeatherCatV1.12B45,2013-02-16 06:00:00,
2013-02-16 01:05:00,26.0,20.7,30.14,NNW,345,2.0,2.0,80,0.00,,,0.00,0,WeatherCatV1.12B45,2013-02-16 06:05:00,
2013-02-16 01:10:00,25.9,20.3,30.14,NNW,329,1.0,3.0,79,0.00,,,0.00,0,WeatherCatV1.12B45,2013-02-16 06:10:00,
2013-02-16 01:15:00,25.9,20.3,30.14,NW,325,3.0,4.0,79,0.00,,,0.00,0,WeatherCatV1.12B45,2013-02-16 06:15:00,
2013-02-16 01:20:00,25.8,20.2,30.13,NW,310,3.0,3.0,79,0.00,,,0.00,0,WeatherCatV1.12B45,2013-02-16 06:20:00,
2013-02-16 01:25:00,25.7,20.1,30.14,NW,307,2.0,4.0,79,0.00,,,0.00,0,WeatherCatV1.12B45,2013-02-16 06:25:00,
2013-02-16 01:30:00,25.7,20.1,30.13,WNW,291,0.0,4.0,79,0.00,,,0.00,0,WeatherCatV1.12B45,2013-02-16 06:30:00,
2013-02-16 01:35:00,25.7,20.4,30.13,NNW,340,2.0,3.0,80,0.00,,,0.00,0,WeatherCatV1.12B45,2013-02-16 06:35:00,
2013-02-16 01:40:00,25.6,20.3,30.13,NNW,340,1.0,2.0,80,0.00,,,0.00,0,WeatherCatV1.12B45,2013-02-16 06:40:00,
2013-02-16 01:45:00,25.6,20.0,30.13,NNW,340,0.0,1.0,79,0.00,,,0.00,0,WeatherCatV1.12B45,2013-02-16 06:45:00,
2013-02-16 01:50:00,25.5,20.2,30.13,NNW,340,0.0,1.0,80,0.00,,,0.00,0,WeatherCatV1.12B45,2013-02-16 06:50:00,
2013-02-16 01:55:00,25.5,20.2,30.13,NNW,340,1.0,2.0,80,0.00,,,0.00,0,WeatherCatV1.12B45,2013-02-16 06:55:00,
2013-02-16 02:00:00,25.4,20.1,30.13,NNW,340,2.0,2.0,80,0.00,,,0.00,0,WeatherCatV1.12B45,2013-02-16 07:00:00,
2013-02-16 02:05:00,25.4,20.1,30.13,NNW,340,1.0,2.0,80,0.00,,,0.00,0,WeatherCatV1.12B45,2013-02-16 07:05:00,
2013-02-16 02:10:00,25.3,20.0,30.13,NNW,340,0.0,2.0,80,0.00,,,0.00,0,WeatherCatV1.12B45,2013-02-16 07:10:00,
2013-02-16 02:15:00,25.3,20.0,30.13,NNW,340,1.0,1.0,80,0.00,,,0.00,0,WeatherCatV1.12B45,2013-02-16 07:15:00,
2013-02-16 02:19:00,25.3,20.0,30.13,NNW,340,2.0,2.0,80,0.00,,,0.00,0,WeatherCatV1.12B45,2013-02-16 07:19:00,
2013-02-16 02:24:00,25.2,19.9,30.12,NNW,340,3.0,3.0,80,0.00,,,0.00,0,WeatherCatV1.12B45,2013-02-16 07:24:00,
2013-02-16 02:29:00,25.2,19.9,30.12,NW,314,1.0,3.0,80,0.00,,,0.00,0,WeatherCatV1.12B45,2013-02-16 07:29:00,
2013-02-16 02:34:00,25.2,19.9,30.12,NW,314,2.0,2.0,80,0.00,,,0.00,0,WeatherCatV1.12B45,2013-02-16 07:34:00,
2013-02-16 02:39:00,25.1,19.8,30.12,NW,314,1.0,2.0,80,0.00,,,0.00,0,WeatherCatV1.12B45,2013-02-16 07:39:00,
2013-02-16 02:43:00,25.1,19.8,30.12,NW,314,1.0,2.0,80,0.00,,,0.00,0,WeatherCatV1.12B45,2013-02-16 07:43:00,
2013-02-16 02:48:00,25.1,19.8,30.12,NW,314,1.0,2.0,80,0.00,,,0.00,0,WeatherCatV1.12B45,2013-02-16 07:48:00,
2013-02-16 02:53:00,25.0,19.7,30.12,NW,314,1.0,2.0,80,0.00,,,0.00,0,WeatherCatV1.12B45,2013-02-16 07:53:00,
2013-02-16 02:58:00,25.0,20.0,30.12,NW,314,1.0,2.0,81,0.00,,,0.00,0,WeatherCatV1.12B45,2013-02-16 07:58:00,
2013-02-16 03:03:00,25.0,20.0,30.12,NW,314,1.0,2.0,81,0.00,,,0.00,0,WeatherCatV1.12B45,2013-02-16 08:03:00,
2013-02-16 03:08:00,24.9,19.9,30.11,NW,314,1.0,1.0,81,0.00,,,0.00,0,WeatherCatV1.12B45,2013-02-16 08:08:00,
2013-02-16 03:13:00,24.9,19.9,30.11,NW,314,0.0,2.0,81,0.00,,,0.00,0,WeatherCatV1.12B45,2013-02-16 08:13:00,
2013-02-16 03:18:00,24.8,19.8,30.11,NW,314,0.0,0.0,81,0.00,,,0.00,0,WeatherCatV1.12B45,2013-02-16 08:18:00,
2013-02-16 03:23:00,24.7,20.0,30.11,NW,314,0.0,0.0,82,0.00,,,0.00,0,WeatherCatV1.12B45,2013-02-16 08:23:00,
2013-02-16 03:28:00,24.7,19.7,30.11,NW,314,0.0,0.0,81,0.00,,,0.00,0,WeatherCatV1.12B45,2013-02-16 08:28:00,
2013-02-16 03:33:00,24.6,19.6,30.10,NW,314,0.0,0.0,81,0.00,,,0.00,0,WeatherCatV1.12B45,2013-02-16 08:33:00,
2013-02-16 03:38:00,24.5,19.5,30.10,NW,314,0.0,1.0,81,0.00,,,0.00,0,WeatherCatV1.12B45,2013-02-16 08:38:00,
2013-02-16 03:43:00,24.3,19.6,30.10,NW,314,0.0,2.0,82,0.00,,,0.00,0,WeatherCatV1.12B45,2013-02-16 08:43:00,
2013-02-16 03:48:00,24.2,19.5,30.10,NW,314,0.0,1.0,82,0.00,,,0.00,0,WeatherCatV1.12B45,2013-02-16 08:48:00,
2013-02-16 03:53:00,24.2,19.5,30.10,NW,314,0.0,0.0,82,0.00,,,0.00,0,WeatherCatV1.12B45,2013-02-16 08:53:00,
2013-02-16 03:58:00,24.1,19.4,30.10,NW,314,0.0,0.0,82,0.00,,,0.00,0,WeatherCatV1.12B45,2013-02-16 08:58:00,
2013-02-16 04:03:00,24.0,19.3,30.10,NW,314,0.0,0.0,82,0.00,,,0.00,0,WeatherCatV1.12B45,2013-02-16 09:03:00,
2013-02-16 04:08:00,23.9,19.2,30.09,NW,314,0.0,0.0,82,0.00,,,0.00,0,WeatherCatV1.12B45,2013-02-16 09:08:00,
2013-02-16 04:13:00,23.9,19.2,30.10,NW,314,0.0,0.0,82,0.00,,,0.00,0,WeatherCatV1.12B45,2013-02-16 09:13:00,
2013-02-16 04:18:00,23.8,19.1,30.09,NW,314,0.0,0.0,82,0.00,,,0.00,0,WeatherCatV1.12B45,2013-02-16 09:18:00,
2013-02-16 04:23:00,23.7,19.3,30.09,NW,314,0.0,0.0,83,0.00,,,0.00,0,WeatherCatV1.12B45,2013-02-16 09:23:00,
2013-02-16 04:28:00,23.6,19.2,30.09,NW,314,0.0,0.0,83,0.00,,,0.00,0,WeatherCatV1.12B45,2013-02-16 09:28:00,
2013-02-16 04:33:00,23.6,19.2,30.09,NW,314,0.0,0.0,83,0.00,,,0.00,0,WeatherCatV1.12B45,2013-02-16 09:33:00,
2013-02-16 04:38:00,23.5,19.1,30.09,NW,314,0.0,0.0,83,0.00,,,0.00,0,WeatherCatV1.12B45,2013-02-16 09:38:00,
2013-02-16 04:43:00,23.4,19.3,30.09,NW,314,0.0,0.0,84,0.00,,,0.00,0,WeatherCatV1.12B45,2013-02-16 09:43:00,
2013-02-16 04:48:00,23.4,19.3,30.09,NW,314,1.0,1.0,84,0.00,,,0.00,0,WeatherCatV1.12B45,2013-02-16 09:48:00,
2013-02-16 04:53:00,23.4,19.3,30.09,NW,314,0.0,1.0,84,0.00,,,0.00,0,WeatherCatV1.12B45,2013-02-16 09:53:00,
2013-02-16 04:58:00,23.3,19.2,30.09,NW,314,0.0,0.0,84,0.00,,,0.00,0,WeatherCatV1.12B45,2013-02-16 09:58:00,
2013-02-16 05:03:00,23.3,19.2,30.09,NW,314,1.0,1.0,84,0.00,,,0.00,0,WeatherCatV1.12B45,2013-02-16 10:03:00,
2013-02-16 05:08:00,23.2,19.1,30.09,NW,314,0.0,1.0,84,0.00,,,0.00,0,WeatherCatV1.12B45,2013-02-16 10:08:00,
2013-02-16 05:13:00,23.1,19.3,30.09,NW,314,1.0,1.0,85,0.00,,,0.00,0,WeatherCatV1.12B45,2013-02-16 10:13:00,
2013-02-16 05:18:00,23.1,19.3,30.09,NW,314,0.0,0.0,85,0.00,,,0.00,0,WeatherCatV1.12B45,2013-02-16 10:18:00,
2013-02-16 05:23:00,23.0,19.2,30.09,NW,314,0.0,1.0,85,0.00,,,0.00,0,WeatherCatV1.12B45,2013-02-16 10:23:00,
2013-02-16 05:28:00,23.0,19.2,30.09,NW,314,0.0,2.0,85,0.00,,,0.00,0,WeatherCatV1.12B45,2013-02-16 10:28:00,
2013-02-16 05:33:00,22.9,19.1,30.09,NW,314,0.0,1.0,85,0.00,,,0.00,0,WeatherCatV1.12B45,2013-02-16 10:33:00,
2013-02-16 05:38:00,22.9,19.1,30.09,NW,314,0.0,1.0,85,0.00,,,0.00,0,WeatherCatV1.12B45,2013-02-16 10:38:00,
2013-02-16 05:43:00,22.9,19.1,30.09,NW,314,0.0,0.0,85,0.00,,,0.00,0,WeatherCatV1.12B45,2013-02-16 10:43:00,
2013-02-16 05:48:00,22.8,19.0,30.09,NW,314,0.0,1.0,85,0.00,,,0.00,0,WeatherCatV1.12B45,2013-02-16 10:48:00,
2013-02-16 05:53:00,22.7,18.9,30.09,NW,314,1.0,1.0,85,0.00,,,0.00,0,WeatherCatV1.12B45,2013-02-16 10:53:00,
2013-02-16 05:58:00,22.7,19.2,30.08,NW,314,0.0,1.0,86,0.00,,,0.00,0,WeatherCatV1.12B45,2013-02-16 10:58:00,
2013-02-16 06:03:00,22.7,19.2,30.08,NW,314,0.0,1.0,86,0.00,,,0.00,0,WeatherCatV1.12B45,2013-02-16 11:03:00,
2013-02-16 06:08:00,22.6,19.1,30.08,NW,314,0.0,1.0,86,0.00,,,0.00,0,WeatherCatV1.12B45,2013-02-16 11:08:00,
2013-02-16 06:13:00,22.5,19.2,30.08,NW,314,1.0,1.0,87,0.00,,,0.00,0,WeatherCatV1.12B45,2013-02-16 11:13:00,
2013-02-16 06:18:00,22.4,19.1,30.08,NW,314,1.0,1.0,87,0.00,,,0.00,0,WeatherCatV1.12B45,2013-02-16 11:18:00,
2013-02-16 06:23:00,22.4,19.1,30.08,NW,314,1.0,1.0,87,0.00,,,0.00,0,WeatherCatV1.12B45,2013-02-16 11:23:00,
2013-02-16 06:28:00,22.3,19.0,30.08,NW,314,1.0,1.0,87,0.00,,,0.00,0,WeatherCatV1.12B45,2013-02-16 11:28:00,
2013-02-16 06:33:00,22.3,19.3,30.08,NW,314,0.0,1.0,88,0.00,,,0.00,0,WeatherCatV1.12B45,2013-02-16 11:33:00,
2013-02-16 06:38:00,22.2,19.2,30.08,NW,314,0.0,0.0,88,0.00,,,0.00,0,WeatherCatV1.12B45,2013-02-16 11:38:00,
2013-02-16 06:43:00,22.3,19.3,30.08,NW,314,1.0,2.0,88,0.00,,,0.00,0,WeatherCatV1.12B45,2013-02-16 11:43:00,
2013-02-16 06:48:00,22.2,19.2,30.08,NW,314,1.0,1.0,88,0.00,,,0.00,0,WeatherCatV1.12B45,2013-02-16 11:48:00,
2013-02-16 06:53:00,22.2,19.2,30.08,NW,314,2.0,2.0,88,0.00,,,0.00,0,WeatherCatV1.12B45,2013-02-16 11:53:00,
2013-02-16 06:58:00,22.2,19.2,30.08,SW,215,1.0,3.0,88,0.00,,,0.00,0,WeatherCatV1.12B45,2013-02-16 11:58:00,
2013-02-16 07:03:00,22.1,19.1,30.08,SW,215,1.0,2.0,88,0.00,,,0.00,0,WeatherCatV1.12B45,2013-02-16 12:03:00,
2013-02-16 07:08:00,22.1,19.1,30.08,SW,215,2.0,2.0,88,0.00,,,0.00,0,WeatherCatV1.12B45,2013-02-16 12:08:00,
2013-02-16 07:13:00,22.1,19.1,30.08,SW,215,1.0,2.0,88,0.00,,,0.00,0,WeatherCatV1.12B45,2013-02-16 12:13:00,
2013-02-16 07:18:00,22.1,19.1,30.08,SW,215,1.0,2.0,88,0.00,,,0.00,0,WeatherCatV1.12B45,2013-02-16 12:18:00,
2013-02-16 07:23:00,22.1,19.4,30.08,SW,215,2.0,2.0,89,0.00,,,0.00,0,WeatherCatV1.12B45,2013-02-16 12:23:00,
2013-02-16 07:28:00,22.1,19.4,30.08,SW,215,2.0,3.0,89,0.00,,,0.00,0,WeatherCatV1.12B45,2013-02-16 12:28:00,
2013-02-16 07:33:00,22.2,19.5,30.08,SW,215,0.0,2.0,89,0.00,,,0.00,7,WeatherCatV1.12B45,2013-02-16 12:33:00,
2013-02-16 07:38:00,22.2,19.5,30.08,SW,215,1.0,2.0,89,0.00,,,0.00,11,WeatherCatV1.12B45,2013-02-16 12:38:00,
2013-02-16 07:43:00,22.2,19.5,30.08,SW,215,0.0,1.0,89,0.00,,,0.00,16,WeatherCatV1.12B45,2013-02-16 12:43:00,
2013-02-16 07:48:00,22.1,19.4,30.08,SW,215,0.0,1.0,89,0.00,,,0.00,19,WeatherCatV1.12B45,2013-02-16 12:48:00,
2013-02-16 07:53:00,22.0,19.3,30.08,SW,215,1.0,2.0,89,0.00,,,0.00,28,WeatherCatV1.12B45,2013-02-16 12:53:00,
2013-02-16 07:58:00,22.1,19.4,30.08,SW,215,2.0,2.0,89,0.00,,,0.00,42,WeatherCatV1.12B45,2013-02-16 12:58:00,
2013-02-16 08:03:00,22.3,19.8,30.08,WSW,242,5.0,5.0,90,0.00,,,0.00,54,WeatherCatV1.12B45,2013-02-16 13:03:00,
2013-02-16 08:08:00,22.5,20.0,30.08,WSW,237,4.0,4.0,90,0.00,,,0.00,63,WeatherCatV1.12B45,2013-02-16 13:08:00,
2013-02-16 08:13:00,22.8,20.3,30.08,WSW,249,2.0,3.0,90,0.00,,,0.00,77,WeatherCatV1.12B45,2013-02-16 13:13:00,
2013-02-16 08:18:00,23.0,20.5,30.08,WSW,249,3.0,4.0,90,0.00,,,0.00,93,WeatherCatV1.12B45,2013-02-16 13:18:00,
2013-02-16 08:23:00,23.1,20.4,30.08,West,273,3.0,3.0,89,0.00,,,0.00,111,WeatherCatV1.12B45,2013-02-16 13:23:00,
2013-02-16 08:28:00,23.3,20.5,30.08,West,264,3.0,6.0,89,0.00,,,0.00,123,WeatherCatV1.12B45,2013-02-16 13:28:00,
2013-02-16 08:33:00,23.4,20.4,30.08,WSW,245,2.0,4.0,88,0.00,,,0.00,144,WeatherCatV1.12B45,2013-02-16 13:33:00,
2013-02-16 08:38:00,23.6,20.3,30.08,WSW,254,3.0,6.0,87,0.00,,,0.00,176,WeatherCatV1.12B45,2013-02-16 13:38:00,
2013-02-16 08:43:00,23.8,20.5,30.09,WSW,246,1.0,4.0,87,0.00,,,0.00,195,WeatherCatV1.12B45,2013-02-16 13:43:00,
2013-02-16 08:48:00,24.1,20.5,30.09,West,275,1.0,3.0,86,0.00,,,0.00,218,WeatherCatV1.12B45,2013-02-16 13:48:00,
2013-02-16 08:53:00,24.4,20.8,30.09,West,275,5.0,7.0,86,0.00,,,0.00,237,WeatherCatV1.12B45,2013-02-16 13:53:00,
2013-02-16 08:58:00,24.5,20.4,30.09,WNW,291,2.0,4.0,84,0.00,,,0.00,244,WeatherCatV1.12B45,2013-02-16 13:58:00,
2013-02-16 09:03:00,24.8,20.4,30.09,WNW,287,6.0,8.0,83,0.00,,,0.00,257,WeatherCatV1.12B45,2013-02-16 14:03:00,
2013-02-16 09:08:00,24.9,20.2,30.09,West,275,6.0,6.0,82,0.00,,,0.00,276,WeatherCatV1.12B45,2013-02-16 14:08:00,
2013-02-16 09:13:00,25.0,20.3,30.09,West,280,6.0,6.0,82,0.00,,,0.00,320,WeatherCatV1.12B45,2013-02-16 14:13:00,
2013-02-16 09:18:00,25.1,20.4,30.09,WSW,258,6.0,8.0,82,0.00,,,0.00,332,WeatherCatV1.12B45,2013-02-16 14:18:00,
2013-02-16 09:23:00,25.2,20.5,30.09,West,271,3.0,4.0,82,0.00,,,0.00,290,WeatherCatV1.12B45,2013-02-16 14:23:00,
2013-02-16 09:28:00,25.3,20.6,30.09,West,271,6.0,9.0,82,0.00,,,0.00,357,WeatherCatV1.12B45,2013-02-16 14:28:00,
2013-02-16 09:33:00,25.3,20.3,30.09,WNW,289,7.0,7.0,81,0.00,,,0.00,373,WeatherCatV1.12B45,2013-02-16 14:33:00,
2013-02-16 09:38:00,25.5,20.5,30.09,WNW,293,3.0,8.0,81,0.00,,,0.00,385,WeatherCatV1.12B45,2013-02-16 14:38:00,
2013-02-16 09:43:00,26.2,21.2,30.08,WSW,253,3.0,7.0,81,0.00,,,0.00,392,WeatherCatV1.12B45,2013-02-16 14:43:00,
2013-02-16 09:48:00,26.6,21.6,30.08,NW,309,6.0,6.0,81,0.00,,,0.00,359,WeatherCatV1.12B45,2013-02-16 14:48:00,
2013-02-16 09:53:00,27.3,22.0,30.08,West,272,3.0,7.0,80,0.00,,,0.00,388,WeatherCatV1.12B45,2013-02-16 14:53:00,
2013-02-16 09:58:00,26.8,20.6,30.08,WSW,258,6.0,10.0,77,0.00,,,0.00,413,WeatherCatV1.12B45,2013-02-16 14:58:00,
2013-02-16 10:03:00,26.9,21.0,30.08,WNW,291,3.0,5.0,78,0.00,,,0.00,283,WeatherCatV1.12B45,2013-02-16 15:03:00,
2013-02-16 10:08:00,27.0,20.8,30.08,WNW,283,6.0,9.0,77,0.00,,,0.00,410,WeatherCatV1.12B45,2013-02-16 15:08:00,
2013-02-16 10:13:00,27.1,21.2,30.08,West,267,2.0,8.0,78,0.00,,,0.00,508,WeatherCatV1.12B45,2013-02-16 15:13:00,
2013-02-16 10:18:00,27.5,21.3,30.09,WNW,300,6.0,8.0,77,0.00,,,0.00,570,WeatherCatV1.12B45,2013-02-16 15:18:00,
2013-02-16 10:23:00,27.4,20.8,30.08,WNW,283,4.0,10.0,76,0.00,,,0.00,541,WeatherCatV1.12B45,2013-02-16 15:23:00,
2013-02-16 10:28:00,27.4,21.2,30.08,West,267,3.0,7.0,77,0.00,,,0.00,408,WeatherCatV1.12B45,2013-02-16 15:28:00,
2013-02-16 10:33:00,27.3,20.8,30.08,NW,304,3.0,10.0,76,0.00,,,0.00,594,WeatherCatV1.12B45,2013-02-16 15:33:00,
2013-02-16 10:38:00,27.6,21.0,30.08,West,266,3.0,8.0,76,0.00,,,0.00,362,WeatherCatV1.12B45,2013-02-16 15:38:00,
2013-02-16 10:43:00,27.8,21.2,30.08,West,274,6.0,10.0,76,0.00,,,0.00,264,WeatherCatV1.12B45,2013-02-16 15:43:00,
2013-02-16 10:48:00,27.5,20.6,30.08,WSW,250,6.0,9.0,75,0.00,,,0.00,241,WeatherCatV1.12B45,2013-02-16 15:48:00,
2013-02-16 10:53:00,27.2,20.3,30.08,WSW,256,5.0,8.0,75,0.00,,,0.00,230,WeatherCatV1.12B45,2013-02-16 15:53:00,
2013-02-16 10:58:00,27.1,20.6,30.08,West,267,3.0,6.0,76,0.00,,,0.00,183,WeatherCatV1.12B45,2013-02-16 15:58:00,
2013-02-16 11:03:00,27.1,20.6,30.08,WSW,243,4.0,9.0,76,0.00,,,0.00,162,WeatherCatV1.12B45,2013-02-16 16:03:00,
2013-02-16 11:08:00,27.0,20.2,30.08,WNW,286,5.0,7.0,75,0.00,,,0.00,406,WeatherCatV1.12B45,2013-02-16 16:08:00,
2013-02-16 11:13:00,27.7,20.8,30.08,SSW,204,4.0,6.0,75,0.00,,,0.00,838,WeatherCatV1.12B45,2013-02-16 16:13:00,
2013-02-16 11:18:00,28.6,20.7,30.08,WSW,255,3.0,11.0,72,0.00,,,0.00,318,WeatherCatV1.12B45,2013-02-16 16:18:00,
2013-02-16 11:23:00,28.4,19.9,30.08,WSW,254,5.0,10.0,70,0.00,,,0.00,276,WeatherCatV1.12B45,2013-02-16 16:23:00,
2013-02-16 11:28:00,28.0,19.5,30.08,WSW,248,7.0,13.0,70,0.00,,,0.00,283,WeatherCatV1.12B45,2013-02-16 16:28:00,
2013-02-16 11:33:00,27.9,19.7,30.08,WSW,244,5.0,13.0,71,0.00,,,0.00,257,WeatherCatV1.12B45,2013-02-16 16:33:00,
2013-02-16 11:38:00,27.9,19.4,30.08,WNW,284,9.0,12.0,70,0.00,,,0.00,366,WeatherCatV1.12B45,2013-02-16 16:38:00,
2013-02-16 11:43:00,27.9,19.7,30.08,NW,316,9.0,12.0,71,0.00,,,0.00,380,WeatherCatV1.12B45,2013-02-16 16:43:00,
2013-02-16 11:48:00,27.9,19.4,30.08,WNW,283,3.0,10.0,70,0.00,,,0.00,283,WeatherCatV1.12B45,2013-02-16 16:48:00,
2013-02-16 11:53:00,27.8,18.6,30.08,West,273,2.0,11.0,68,0.00,,,0.00,338,WeatherCatV1.12B45,2013-02-16 16:53:00,
2013-02-16 11:58:00,27.7,17.8,30.08,West,267,5.0,12.0,66,0.00,,,0.00,214,WeatherCatV1.12B45,2013-02-16 16:58:00,
2013-02-16 12:03:00,27.5,17.3,30.08,West,260,8.0,8.0,65,0.00,,,0.00,308,WeatherCatV1.12B45,2013-02-16 17:03:00,
2013-02-16 12:08:00,27.4,17.2,30.08,West,275,5.0,11.0,65,0.00,,,0.00,223,WeatherCatV1.12B45,2013-02-16 17:08:00,
2013-02-16 12:13:00,27.3,17.1,30.08,WNW,289,7.0,13.0,65,0.00,,,0.00,223,WeatherCatV1.12B45,2013-02-16 17:13:00,
2013-02-16 12:18:00,27.2,17.4,30.08,NW,312,6.0,11.0,66,0.00,,,0.00,373,WeatherCatV1.12B45,2013-02-16 17:18:00,
2013-02-16 12:23:00,27.4,17.2,30.08,West,267,7.0,12.0,65,0.00,,,0.00,244,WeatherCatV1.12B45,2013-02-16 17:23:00,
2013-02-16 12:28:00,27.5,16.9,30.08,West,275,12.0,14.0,64,0.00,,,0.00,241,WeatherCatV1.12B45,2013-02-16 17:28:00,
2013-02-16 12:33:00,27.2,16.3,30.08,WSW,242,8.0,12.0,63,0.00,,,0.00,299,WeatherCatV1.12B45,2013-02-16 17:33:00,
2013-02-16 12:38:00,27.2,16.3,30.07,West,281,5.0,11.0,63,0.00,,,0.00,241,WeatherCatV1.12B45,2013-02-16 17:38:00,
2013-02-16 12:43:00,27.1,16.2,30.07,WNW,288,10.0,13.0,63,0.00,,,0.00,229,WeatherCatV1.12B45,2013-02-16 17:43:00,
2013-02-16 12:48:00,27.0,16.1,30.07,West,266,7.0,12.0,63,0.00,,,0.00,714,WeatherCatV1.12B45,2013-02-16 17:48:00,
2013-02-16 12:53:00,27.3,15.3,30.07,West,278,9.0,12.0,60,0.00,,,0.00,853,WeatherCatV1.12B45,2013-02-16 17:53:00,
2013-02-16 12:58:00,27.8,15.0,30.07,WSW,248,9.0,17.0,58,0.00,,,0.00,991,WeatherCatV1.12B45,2013-02-16 17:58:00,
2013-02-16 13:03:00,28.1,15.3,30.07,WSW,252,7.0,17.0,58,0.00,,,0.00,963,WeatherCatV1.12B45,2013-02-16 18:03:00,
2013-02-16 13:08:00,28.4,15.9,30.06,West,277,9.0,14.0,59,0.00,,,0.00,881,WeatherCatV1.12B45,2013-02-16 18:08:00,
2013-02-16 13:13:00,28.6,15.3,30.06,WNW,287,7.0,15.0,57,0.00,,,0.00,346,WeatherCatV1.12B45,2013-02-16 18:13:00,
2013-02-16 13:18:00,28.7,15.4,30.06,West,259,5.0,9.0,57,0.00,,,0.00,860,WeatherCatV1.12B45,2013-02-16 18:18:00,
2013-02-16 13:23:00,28.5,15.6,30.06,NNW,340,5.0,9.0,58,0.00,,,0.00,287,WeatherCatV1.12B45,2013-02-16 18:23:00,
2013-02-16 13:28:00,28.4,15.5,30.06,West,281,9.0,9.0,58,0.00,,,0.00,283,WeatherCatV1.12B45,2013-02-16 18:28:00,
2013-02-16 13:33:00,28.9,16.8,30.06,NW,317,7.0,8.0,60,0.00,,,0.00,316,WeatherCatV1.12B45,2013-02-16 18:33:00,
2013-02-16 13:38:00,28.7,16.2,30.06,NW,319,6.0,13.0,59,0.00,,,0.00,367,WeatherCatV1.12B45,2013-02-16 18:38:00,
2013-02-16 13:43:00,28.2,15.7,30.06,West,271,13.0,13.0,59,0.00,,,0.00,271,WeatherCatV1.12B45,2013-02-16 18:43:00,
2013-02-16 13:48:00,27.8,16.1,30.06,WNW,282,6.0,13.0,61,0.00,,,0.00,260,WeatherCatV1.12B45,2013-02-16 18:48:00,
2013-02-16 13:53:00,27.5,15.5,30.06,WSW,252,5.0,10.0,60,0.00,,,0.00,237,WeatherCatV1.12B45,2013-02-16 18:53:00,
2013-02-16 13:58:00,27.4,16.1,30.06,WNW,284,6.0,12.0,62,0.00,,,0.00,248,WeatherCatV1.12B45,2013-02-16 18:58:00,
2013-02-16 14:03:00,27.2,16.7,30.06,West,281,12.0,14.0,64,0.00,,,0.00,199,WeatherCatV1.12B45,2013-02-16 19:03:00,
2013-02-16 14:08:00,26.9,16.0,30.05,WNW,283,9.0,10.0,63,0.00,,,0.00,220,WeatherCatV1.12B45,2013-02-16 19:08:00,
2013-02-16 14:13:00,27.0,15.4,30.06,West,260,4.0,14.0,61,0.00,,,0.00,225,WeatherCatV1.12B45,2013-02-16 19:13:00,
2013-02-16 14:18:00,27.0,15.7,30.05,West,276,7.0,13.0,62,0.00,,,0.00,225,WeatherCatV1.12B45,2013-02-16 19:18:00,
2013-02-16 14:23:00,27.0,16.1,30.06,WSW,252,8.0,12.0,63,0.00,,,0.00,278,WeatherCatV1.12B45,2013-02-16 19:23:00,
2013-02-16 14:28:00,27.0,15.4,30.06,West,279,6.0,11.0,61,0.00,,,0.00,213,WeatherCatV1.12B45,2013-02-16 19:28:00,
2013-02-16 14:33:00,27.0,14.6,30.06,West,279,3.0,15.0,59,0.00,,,0.00,221,WeatherCatV1.12B45,2013-02-16 19:33:00,
2013-02-16 14:38:00,27.0,14.6,30.06,NW,326,8.0,14.0,59,0.00,,,0.00,167,WeatherCatV1.12B45,2013-02-16 19:38:00,
2013-02-16 14:43:00,26.9,15.6,30.06,WSW,252,6.0,9.0,62,0.00,,,0.00,214,WeatherCatV1.12B45,2013-02-16 19:43:00,
2013-02-16 14:48:00,26.9,14.9,30.06,West,273,11.0,17.0,60,0.00,,,0.00,178,WeatherCatV1.12B45,2013-02-16 19:48:00,
2013-02-16 14:53:00,26.6,14.6,30.06,WNW,285,12.0,15.0,60,0.00,,,0.00,204,WeatherCatV1.12B45,2013-02-16 19:53:00,
2013-02-16 14:58:00,26.4,14.4,30.06,West,266,8.0,18.0,60,0.00,,,0.00,179,WeatherCatV1.12B45,2013-02-16 19:58:00,
2013-02-16 15:03:00,26.2,14.2,30.06,WNW,302,9.0,13.0,60,0.00,,,0.00,167,WeatherCatV1.12B45,2013-02-16 20:03:00,
2013-02-16 15:08:00,26.1,13.8,30.06,WSW,255,5.0,12.0,59,0.00,,,0.00,130,WeatherCatV1.12B45,2013-02-16 20:08:00,
2013-02-16 15:13:00,26.4,13.7,30.06,WNW,301,10.0,13.0,58,0.00,,,0.00,176,WeatherCatV1.12B45,2013-02-16 20:13:00,
2013-02-16 15:18:00,26.5,13.0,30.06,West,276,5.0,10.0,56,0.00,,,0.00,176,WeatherCatV1.12B45,2013-02-16 20:18:00,
2013-02-16 15:23:00,26.9,13.3,30.06,West,262,9.0,15.0,56,0.00,,,0.00,578,WeatherCatV1.12B45,2013-02-16 20:23:00,
2013-02-16 15:28:00,27.2,12.8,30.06,West,274,12.0,12.0,54,0.00,,,0.00,543,WeatherCatV1.12B45,2013-02-16 20:28:00,
2013-02-16 15:33:00,27.1,12.3,30.06,WSW,247,5.0,10.0,53,0.00,,,0.00,130,WeatherCatV1.12B45,2013-02-16 20:33:00,
2013-02-16 15:38:00,27.1,12.3,30.06,West,263,8.0,11.0,53,0.00,,,0.00,192,WeatherCatV1.12B45,2013-02-16 20:38:00,
2013-02-16 15:43:00,27.1,12.7,30.06,WSW,258,10.0,16.0,54,0.00,,,0.00,178,WeatherCatV1.12B45,2013-02-16 20:43:00,
2013-02-16 15:48:00,27.1,12.3,30.06,West,270,7.0,15.0,53,0.00,,,0.00,320,WeatherCatV1.12B45,2013-02-16 20:48:00,
2013-02-16 15:53:00,27.5,12.2,30.06,West,265,7.0,12.0,52,0.00,,,0.00,510,WeatherCatV1.12B45,2013-02-16 20:53:00,
2013-02-16 15:58:00,28.1,11.9,30.06,WSW,249,8.0,13.0,50,0.00,,,0.00,452,WeatherCatV1.12B45,2013-02-16 20:58:00,
2013-02-16 16:03:00,28.3,11.2,30.06,WNW,283,16.0,19.0,48,0.00,,,0.00,392,WeatherCatV1.12B45,2013-02-16 21:03:00,
2013-02-16 16:08:00,27.9,11.2,30.06,WNW,284,6.0,18.0,49,0.00,,,0.00,178,WeatherCatV1.12B45,2013-02-16 21:08:00,
2013-02-16 16:13:00,28.0,11.8,30.07,NW,310,16.0,17.0,50,0.00,,,0.00,373,WeatherCatV1.12B45,2013-02-16 21:13:00,
2013-02-16 16:18:00,27.9,11.7,30.07,West,277,9.0,15.0,50,0.00,,,0.00,292,WeatherCatV1.12B45,2013-02-16 21:18:00,
2013-02-16 16:23:00,27.9,10.8,30.07,WNW,297,8.0,19.0,48,0.00,,,0.00,364,WeatherCatV1.12B45,2013-02-16 21:23:00,
2013-02-16 16:28:00,28.0,11.8,30.07,West,279,7.0,14.0,50,0.00,,,0.00,378,WeatherCatV1.12B45,2013-02-16 21:28:00,
2013-02-16 16:33:00,28.1,12.3,30.07,NW,325,4.0,14.0,51,0.00,,,0.00,272,WeatherCatV1.12B45,2013-02-16 21:33:00,
2013-02-16 16:38:00,28.4,13.5,30.07,West,269,7.0,17.0,53,0.00,,,0.00,239,WeatherCatV1.12B45,2013-02-16 21:38:00,
2013-02-16 16:43:00,28.5,11.8,30.07,NNE,18,8.0,18.0,49,0.00,,,0.00,264,WeatherCatV1.12B45,2013-02-16 21:43:00,
2013-02-16 16:48:00,28.3,11.6,30.07,WNW,300,8.0,16.0,49,0.00,,,0.00,176,WeatherCatV1.12B45,2013-02-16 21:48:00,
2013-02-16 16:53:00,27.9,11.7,30.07,NW,316,12.0,16.0,50,0.00,,,0.00,179,WeatherCatV1.12B45,2013-02-16 21:53:00,
2013-02-16 16:58:00,27.6,11.4,30.07,West,275,5.0,16.0,50,0.00,,,0.00,90,WeatherCatV1.12B45,2013-02-16 21:58:00,
2013-02-16 17:03:00,27.2,11.5,30.08,West,263,8.0,14.0,51,0.00,,,0.00,67,WeatherCatV1.12B45,2013-02-16 22:03:00,
2013-02-16 17:08:00,26.7,11.9,30.08,WNW,285,1.0,12.0,53,0.00,,,0.00,79,WeatherCatV1.12B45,2013-02-16 22:08:00,
2013-02-16 17:13:00,26.6,11.8,30.07,West,279,7.0,14.0,53,0.00,,,0.00,120,WeatherCatV1.12B45,2013-02-16 22:13:00,
2013-02-16 17:18:00,26.5,12.1,30.07,WNW,298,8.0,15.0,54,0.00,,,0.00,100,WeatherCatV1.12B45,2013-02-16 22:18:00,
2013-02-16 17:23:00,26.4,12.5,30.08,WSW,250,7.0,15.0,55,0.00,,,0.00,109,WeatherCatV1.12B45,2013-02-16 22:23:00,
2013-02-16 17:28:00,26.3,12.4,30.08,WSW,253,8.0,19.0,55,0.00,,,0.00,84,WeatherCatV1.12B45,2013-02-16 22:28:00,
2013-02-16 17:33:00,26.2,11.9,30.08,WNW,302,12.0,16.0,54,0.00,,,0.00,60,WeatherCatV1.12B45,2013-02-16 22:33:00,
2013-02-16 17:38:00,25.9,11.2,30.08,West,281,13.0,18.0,53,0.00,,,0.00,53,WeatherCatV1.12B45,2013-02-16 22:38:00,
2013-02-16 17:43:00,25.7,11.8,30.08,WNW,296,11.0,14.0,55,0.00,,,0.00,51,WeatherCatV1.12B45,2013-02-16 22:43:00,
2013-02-16 17:48:00,25.5,12.0,30.08,West,268,6.0,15.0,56,0.00,,,0.00,32,WeatherCatV1.12B45,2013-02-16 22:48:00,
2013-02-16 17:53:00,25.4,12.7,30.09,WNW,285,9.0,13.0,58,0.00,,,0.00,37,WeatherCatV1.12B45,2013-02-16 22:53:00,
2013-02-16 17:58:00,25.2,12.5,30.09,WNW,294,10.0,12.0,58,0.00,,,0.00,21,WeatherCatV1.12B45,2013-02-16 22:58:00,
2013-02-16 18:03:00,25.1,12.4,30.09,West,278,9.0,11.0,58,0.00,,,0.00,12,WeatherCatV1.12B45,2013-02-16 23:03:00,
2013-02-16 18:08:00,24.9,12.6,30.09,NW,314,13.0,15.0,59,0.00,,,0.00,9,WeatherCatV1.12B45,2013-02-16 23:08:00,
2013-02-16 18:13:00,24.9,12.6,30.09,West,277,8.0,12.0,59,0.00,,,0.00,0,WeatherCatV1.12B45,2013-02-16 23:13:00,
2013-02-16 18:18:00,24.7,12.8,30.09,WNW,285,4.0,18.0,60,0.00,,,0.00,0,WeatherCatV1.12B45,2013-02-16 23:18:00,
2013-02-16 18:23:00,24.5,13.0,30.09,WNW,293,9.0,9.0,61,0.00,,,0.00,0,WeatherCatV1.12B45,2013-02-16 23:23:00,
2013-02-16 18:28:00,24.3,12.8,30.09,WNW,294,9.0,15.0,61,0.00,,,0.00,0,WeatherCatV1.12B45,2013-02-16 23:28:00,
2013-02-16 18:33:00,24.1,13.0,30.10,West,279,14.0,14.0,62,0.00,,,0.00,0,WeatherCatV1.12B45,2013-02-16 23:33:00,
2013-02-16 18:38:00,23.9,12.8,30.10,NW,310,5.0,8.0,62,0.00,,,0.00,0,WeatherCatV1.12B45,2013-02-16 23:38:00,
2013-02-16 18:43:00,23.7,12.6,30.10,West,281,9.0,11.0,62,0.00,,,0.00,0,WeatherCatV1.12B45,2013-02-16 23:43:00,
2013-02-16 18:48:00,23.6,12.9,30.10,West,277,4.0,8.0,63,0.00,,,0.00,0,WeatherCatV1.12B45,2013-02-16 23:48:00,
2013-02-16 18:53:00,23.5,12.8,30.10,WNW,291,5.0,9.0,63,0.00,,,0.00,0,WeatherCatV1.12B45,2013-02-16 23:53:00,
2013-02-16 18:58:00,23.5,12.8,30.10,NNW,345,7.0,8.0,63,0.00,,,0.00,0,WeatherCatV1.12B45,2013-02-16 23:58:00,
2013-02-16 19:03:00,23.4,13.4,30.10,West,277,7.0,10.0,65,0.00,,,0.00,0,WeatherCatV1.12B45,2013-02-17 00:03:00,
2013-02-16 19:08:00,23.2,13.2,30.10,NW,316,14.0,14.0,65,0.00,,,0.00,0,WeatherCatV1.12B45,2013-02-17 00:08:00,
2013-02-16 19:13:00,23.0,13.0,30.10,NW,311,3.0,12.0,65,0.00,,,0.00,0,WeatherCatV1.12B45,2013-02-17 00:13:00,
2013-02-16 19:18:00,22.9,12.6,30.11,WNW,295,5.0,8.0,64,0.00,,,0.00,0,WeatherCatV1.12B45,2013-02-17 00:18:00,
2013-02-16 19:23:00,22.8,12.1,30.10,West,278,12.0,13.0,63,0.00,,,0.00,0,WeatherCatV1.12B45,2013-02-17 00:23:00,
2013-02-16 19:28:00,22.6,12.3,30.11,NW,315,7.0,17.0,64,0.00,,,0.00,0,WeatherCatV1.12B45,2013-02-17 00:28:00,
2013-02-16 19:33:00,22.5,12.5,30.11,WNW,296,6.0,7.0,65,0.00,,,0.00,0,WeatherCatV1.12B45,2013-02-17 00:33:00,
2013-02-16 19:38:00,22.4,12.4,30.11,WNW,294,7.0,12.0,65,0.00,,,0.00,0,WeatherCatV1.12B45,2013-02-17 00:38:00,
2013-02-16 19:43:00,22.3,12.0,30.11,NW,308,7.0,12.0,64,0.00,,,0.00,0,WeatherCatV1.12B45,2013-02-17 00:43:00,
2013-02-16 19:48:00,22.2,11.9,30.11,West,275,6.0,12.0,64,0.00,,,0.00,0,WeatherCatV1.12B45,2013-02-17 00:48:00,
2013-02-16 19:53:00,22.2,11.9,30.11,NNW,333,7.0,11.0,64,0.00,,,0.00,0,WeatherCatV1.12B45,2013-02-17 00:53:00,
2013-02-16 19:58:00,22.1,11.8,30.11,WNW,293,8.0,13.0,64,0.00,,,0.00,0,WeatherCatV1.12B45,2013-02-17 00:58:00,
2013-02-16 20:03:00,22.1,11.8,30.11,WNW,289,10.0,10.0,64,0.00,,,0.00,0,WeatherCatV1.12B45,2013-02-17 01:03:00,
2013-02-16 20:08:00,22.0,11.7,30.11,West,268,6.0,11.0,64,0.00,,,0.00,0,WeatherCatV1.12B45,2013-02-17 01:08:00,
2013-02-16 20:13:00,22.0,11.7,30.12,WNW,295,6.0,11.0,64,0.00,,,0.00,0,WeatherCatV1.12B45,2013-02-17 01:13:00,
2013-02-16 20:18:00,22.0,11.4,30.12,WNW,287,4.0,11.0,63,0.00,,,0.00,0,WeatherCatV1.12B45,2013-02-17 01:18:00,
2013-02-16 20:23:00,21.9,11.3,30.12,NW,305,6.0,7.0,63,0.00,,,0.00,0,WeatherCatV1.12B45,2013-02-17 01:23:00,
2013-02-16 20:28:00,21.9,11.3,30.12,West,266,3.0,8.0,63,0.00,,,0.00,0,WeatherCatV1.12B45,2013-02-17 01:28:00,
2013-02-16 20:33:00,22.0,11.4,30.12,NW,318,4.0,9.0,63,0.00,,,0.00,0,WeatherCatV1.12B45,2013-02-17 01:33:00,
2013-02-16 20:38:00,22.1,11.5,30.12,NW,314,9.0,10.0,63,0.00,,,0.00,0,WeatherCatV1.12B45,2013-02-17 01:38:00,
2013-02-16 20:43:00,22.2,11.6,30.12,NW,304,8.0,11.0,63,0.00,,,0.00,0,WeatherCatV1.12B45,2013-02-17 01:43:00,
2013-02-16 20:48:00,22.2,11.9,30.12,North,9,9.0,13.0,64,0.00,,,0.00,0,WeatherCatV1.12B45,2013-02-17 01:48:00,
2013-02-16 20:53:00,22.1,12.5,30.12,West,276,5.0,11.0,66,0.00,,,0.00,0,WeatherCatV1.12B45,2013-02-17 01:53:00,
2013-02-16 20:58:00,22.0,12.4,30.12,NW,323,7.0,13.0,66,0.00,,,0.00,0,WeatherCatV1.12B45,2013-02-17 01:58:00,
2013-02-16 21:03:00,21.9,13.0,30.12,WNW,283,4.0,9.0,68,0.00,,,0.00,0,WeatherCatV1.12B45,2013-02-17 02:03:00,
2013-02-16 21:08:00,21.8,13.2,30.12,West,277,7.0,8.0,69,0.00,,,0.00,0,WeatherCatV1.12B45,2013-02-17 02:08:00,
2013-02-16 21:13:00,21.6,13.0,30.13,West,271,8.0,8.0,69,0.00,,,0.00,0,WeatherCatV1.12B45,2013-02-17 02:13:00,
2013-02-16 21:18:00,21.5,12.9,30.13,WNW,287,6.0,10.0,69,0.00,,,0.00,0,WeatherCatV1.12B45,2013-02-17 02:18:00,
2013-02-16 21:23:00,21.5,12.6,30.13,WNW,295,6.0,7.0,68,0.00,,,0.00,0,WeatherCatV1.12B45,2013-02-17 02:23:00,
2013-02-16 21:28:00,21.5,12.6,30.13,NW,305,2.0,9.0,68,0.00,,,0.00,0,WeatherCatV1.12B45,2013-02-17 02:28:00,
2013-02-16 21:33:00,21.6,12.7,30.13,NNW,327,6.0,11.0,68,0.00,,,0.00,0,WeatherCatV1.12B45,2013-02-17 02:33:00,
2013-02-16 21:38:00,21.6,12.4,30.13,NW,325,9.0,11.0,67,0.00,,,0.00,0,WeatherCatV1.12B45,2013-02-17 02:38:00,
2013-02-16 21:43:00,21.7,12.1,30.13,WNW,301,5.0,9.0,66,0.00,,,0.00,0,WeatherCatV1.12B45,2013-02-17 02:43:00,
2013-02-16 21:48:00,21.7,12.5,30.14,West,278,4.0,7.0,67,0.00,,,0.00,0,WeatherCatV1.12B45,2013-02-17 02:48:00,
2013-02-16 21:53:00,21.7,11.8,30.14,NW,312,5.0,8.0,65,0.00,,,0.00,0,WeatherCatV1.12B45,2013-02-17 02:53:00,
2013-02-16 21:58:00,21.7,11.8,30.14,West,264,3.0,10.0,65,0.00,,,0.00,0,WeatherCatV1.12B45,2013-02-17 02:58:00,
2013-02-16 22:03:00,21.5,11.6,30.14,NW,306,6.0,10.0,65,0.00,,,0.00,0,WeatherCatV1.12B45,2013-02-17 03:03:00,
2013-02-16 22:08:00,21.4,11.1,30.14,WNW,286,3.0,9.0,64,0.00,,,0.00,0,WeatherCatV1.12B45,2013-02-17 03:08:00,
2013-02-16 22:13:00,21.3,11.4,30.14,West,274,5.0,9.0,65,0.00,,,0.00,0,WeatherCatV1.12B45,2013-02-17 03:13:00,
2013-02-16 22:18:00,21.2,11.3,30.14,WNW,287,5.0,9.0,65,0.00,,,0.00,0,WeatherCatV1.12B45,2013-02-17 03:18:00,
2013-02-16 22:23:00,21.1,11.2,30.14,WNW,287,5.0,5.0,65,0.00,,,0.00,0,WeatherCatV1.12B45,2013-02-17 03:23:00,
2013-02-16 22:28:00,20.9,11.0,30.14,WNW,294,6.0,7.0,65,0.00,,,0.00,0,WeatherCatV1.12B45,2013-02-17 03:28:00,
2013-02-16 22:33:00,20.8,10.9,30.14,WNW,283,3.0,7.0,65,0.00,,,0.00,0,WeatherCatV1.12B45,2013-02-17 03:33:00,
2013-02-16 22:38:00,20.7,10.5,30.14,NW,313,5.0,8.0,64,0.00,,,0.00,0,WeatherCatV1.12B45,2013-02-17 03:38:00,
2013-02-16 22:43:00,20.7,10.8,30.14,NW,316,4.0,6.0,65,0.00,,,0.00,0,WeatherCatV1.12B45,2013-02-17 03:43:00,
2013-02-16 22:48:00,20.6,10.7,30.13,West,279,1.0,4.0,65,0.00,,,0.00,0,WeatherCatV1.12B45,2013-02-17 03:48:00,
2013-02-16 22:53:00,20.5,10.6,30.14,WNW,294,3.0,6.0,65,0.00,,,0.00,0,WeatherCatV1.12B45,2013-02-17 03:53:00,
2013-02-16 22:58:00,20.5,10.6,30.14,West,276,3.0,5.0,65,0.00,,,0.00,0,WeatherCatV1.12B45,2013-02-17 03:58:00,
2013-02-16 23:03:00,20.4,10.9,30.14,WNW,283,2.0,6.0,66,0.00,,,0.00,0,WeatherCatV1.12B45,2013-02-17 04:03:00,
2013-02-16 23:08:00,20.4,10.9,30.14,West,262,2.0,3.0,66,0.00,,,0.00,0,WeatherCatV1.12B45,2013-02-17 04:08:00,
2013-02-16 23:13:00,20.3,10.8,30.14,WNW,283,4.0,5.0,66,0.00,,,0.00,0,WeatherCatV1.12B45,2013-02-17 04:13:00,
2013-02-16 23:18:00,20.3,11.1,30.13,West,281,4.0,6.0,67,0.00,,,0.00,0,WeatherCatV1.12B45,2013-02-17 04:18:00,
2013-02-16 23:23:00,20.3,11.1,30.13,WNW,291,2.0,4.0,67,0.00,,,0.00,0,WeatherCatV1.12B45,2013-02-17 04:23:00,
2013-02-16 23:28:00,20.3,11.1,30.13,West,264,2.0,6.0,67,0.00,,,0.00,0,WeatherCatV1.12B45,2013-02-17 04:28:00,
2013-02-16 23:33:00,20.3,11.1,30.13,West,280,5.0,6.0,67,0.00,,,0.00,0,WeatherCatV1.12B45,2013-02-17 04:33:00,
2013-02-16 23:38:00,20.3,11.1,30.13,WNW,285,4.0,5.0,67,0.00,,,0.00,0,WeatherCatV1.12B45,2013-02-17 04:38:00,
2013-02-16 23:43:00,20.3,11.1,30.13,WNW,285,4.0,5.0,67,0.00,,,0.00,0,WeatherCatV1.12B45,2013-02-17 04:43:00,
2013-02-16 23:48:00,20.2,11.0,30.13,WNW,286,3.0,3.0,67,0.00,,,0.00,0,WeatherCatV1.12B45,2013-02-17 04:48:00,
2013-02-16 23:53:00,20.2,11.0,30.13,WSW,255,3.0,6.0,67,0.00,,,0.00,0,WeatherCatV1.12B45,2013-02-17 04:53:00,
2013-02-16 23:58:00,20.2,11.0,30.13,West,280,3.0,6.0,67,0.00,,,0.00,0,WeatherCatV1.12B45,2013-02-17 04:58:00,